Location: Krakow
(50.0830°N, 19.9170°E)
Time: 10:53:47
(UTC+01:00)

Transit 2A - Pass Details

Date: 11 February 2023
Orbit: 591 x 964 km, 66.7° (Epoch: 21 March)

Event Time Altitude Azimuth Distance (km) Brightness Sun altitude
Rises 16:13:39 0° 240° (WSW) 3,083 12.3 4.6°
Reaches altitude 10° 16:16:00 10° 248° (WSW) 2,224 11.1 4.3°
Maximum altitude 16:20:50 42° 319° (NW) 1,117 7.1 3.6°
Drops below altitude 10° 16:26:13 10° 30° (NNE) 2,478 8.2 2.8°
Sets 16:28:58 0° 37° (NE) 3,476 8.8 2.4°
